This demonstration page uses our WeatherBlox Daily Observations layout. Learn more.

Left ArrowRight Arrow

34.16533, -84.80231

Hourly Observations for February 15, 2022

Temp ( °F °C ) Dew Point ( °F °C ) Humidity (%) Winds ( mph kmh ) Pressure ( in mb ) Visibility ( mi km ) Precip ( " mm )
12:15 am 00:15 Cloudy 32 0 28 -2 87 87 Calm 30.44 1031 10 16 0.00 0.00
12:35 am 00:35 Cloudy 32 0 28 -2 87 87 Calm 30.44 1031 10 16 0.00 0.00
12:55 am 00:55 Cloudy 32 0 27 -3 80 80 Calm 30.44 1031 10 16 0.00 0.00
1:15 am 01:15 Cloudy 30 -1 28 -2 93 93 Calm 30.44 1031 10 16 0.00 0.00
1:35 am 01:35 Cloudy 32 0 28 -2 87 87 Calm 30.45 1031 10 16 0.00 0.00
1:55 am 01:55 Cloudy 32 0 28 -2 87 87 Calm 30.45 1031 10 16 0.00 0.00
2:15 am 02:15 Partly Cloudy 30 -1 28 -2 93 93 Calm 30.45 1031 10 16 0.00 0.00
2:35 am 02:35 Clear 32 0 28 -2 87 87 Calm 30.45 1031 10 16 0.00 0.00
2:55 am 02:55 Clear 30 -1 28 -2 93 93 Calm 30.45 1031 10 16 0.00 0.00
3:15 am 03:15 Clear 30 -1 27 -3 86 86 Calm 30.45 1031 10 16 0.00 0.00
3:35 am 03:35 Clear 30 -1 28 -2 93 93 Calm 30.45 1031 10 16 0.00 0.00
3:55 am 03:55 Clear 30 -1 28 -2 93 93 Calm 30.46 1032 10 16 0.00 0.00
4:15 am 04:15 Clear 30 -1 28 -2 93 93 Calm 30.46 1032 10 16 0.00 0.00
4:35 am 04:35 Clear 30 -1 28 -2 93 93 Calm 30.47 1032 10 16 0.00 0.00
4:55 am 04:55 Clear 28 -2 28 -2 100 100 E 3 6 30.48 1032 10 16 0.00 0.00
5:15 am 05:15 Clear 28 -2 28 -2 100 100 E 3 6 30.48 1032 10 16 0.00 0.00
5:35 am 05:35 Mostly Clear 30 -1 28 -2 93 93 E 5 7 30.48 1032 10 16 0.00 0.00
5:55 am 05:55 Partly Cloudy 30 -1 28 -2 93 93 Calm 30.49 1033 10 16 0.00 0.00
6:15 am 06:15 Mostly Clear 30 -1 28 -2 93 93 Calm 30.50 1033 10 16 0.00 0.00
6:35 am 06:35 Partly Cloudy 30 -1 28 -2 93 93 Calm 30.50 1033 9 14 0.00 0.00
6:55 am 06:55 Mostly Clear 30 -1 28 -2 93 93 E 5 7 30.51 1033 9 14 0.00 0.00
7:15 am 07:15 Clear 30 -1 28 -2 93 93 Calm 30.52 1034 10 16 0.00 0.00
7:35 am 07:35 Sunny 30 -1 28 -2 93 93 E 5 7 30.53 1034 9 14 0.00 0.00
7:55 am 07:55 Sunny 30 -1 28 -2 93 93 E 5 7 30.54 1034 9 14 0.00 0.00
8:15 am 08:15 Sunny 32 0 28 -2 87 87 Calm 30.55 1035 9 14 0.00 0.00
8:35 am 08:35 Sunny 36 2 28 -2 75 75 E 3 6 30.55 1035 9 14 0.00 0.00
8:55 am 08:55 Sunny 39 4 28 -2 65 65 E 5 7 30.56 1035 10 16 0.00 0.00
9:15 am 09:15 Sunny 41 5 27 -3 57 57 VRB 6 9 30.56 1035 10 16 0.00 0.00
9:35 am 09:35 Sunny 43 6 27 -3 53 53 ESE 9 15 30.57 1035 10 16 0.00 0.00
9:55 am 09:55 Sunny 43 6 27 -3 53 53 E 12 19 30.57 1035 10 16 0.00 0.00
10:15 am 10:15 Sunny 45 7 27 -3 49 49 E 9 15 30.57 1035 10 16 0.00 0.00
10:35 am 10:35 Sunny 46 8 27 -3 46 46 E 9 15 30.57 1035 10 16 0.00 0.00
10:55 am 10:55 Sunny 48 9 25 -4 40 40 ESE 9 15 30.57 1035 10 16 0.00 0.00
11:15 am 11:15 Sunny 50 10 25 -4 37 37 ESE 9 15 30.56 1035 10 16 0.00 0.00
11:35 am 11:35 Sunny 52 11 25 -4 35 35 E 9 15 30.56 1035 10 16 0.00 0.00
11:55 am 11:55 Sunny 54 12 25 -4 33 33 E 7 11 30.55 1035 10 16 0.00 0.00
12:15 pm 12:15 Sunny 55 13 25 -4 31 31 VRB 7 11 30.54 1034 10 16 0.00 0.00
12:35 pm 12:35 Sunny 57 14 25 -4 29 29 SE 7 11 30.53 1034 10 16 0.00 0.00
12:55 pm 12:55 Sunny 59 15 25 -4 27 27 VRB 6 9 30.52 1033 10 16 0.00 0.00
1:15 pm 13:15 Sunny 59 15 25 -4 27 27 E 10 17 30.50 1033 10 16 0.00 0.00
1:35 pm 13:35 Sunny 59 15 25 -4 27 27 VRB 7 11 30.49 1032 10 16 0.00 0.00
1:55 pm 13:55 Sunny 61 16 25 -4 25 25 S 9 15 30.46 1032 10 16 0.00 0.00
2:15 pm 14:15 Sunny 61 16 25 -4 25 25 E 9 15 30.45 1031 10 16 0.00 0.00
2:35 pm 14:35 Sunny 63 17 25 -4 24 24 SE 9 15 30.44 1031 10 16 0.00 0.00
2:55 pm 14:55 Sunny 63 17 25 -4 24 24 SSE 8 13 30.43 1030 10 16 0.00 0.00
3:15 pm 15:15 Sunny 63 17 25 -4 24 24 VRB 6 9 30.43 1030 10 16 0.00 0.00
3:35 pm 15:35 Sunny 64 18 25 -4 22 22 SSE 9 15 30.43 1030 10 16 0.00 0.00
3:55 pm 15:55 Sunny 64 18 23 -5 21 21 SSE 8 13 30.42 1030 10 16 0.00 0.00
4:15 pm 16:15 Sunny 64 18 23 -5 21 21 VRB 7 11 30.42 1030 10 16 0.00 0.00
4:35 pm 16:35 Sunny 63 17 25 -4 24 24 ESE 8 13 30.42 1030 10 16 0.00 0.00
4:55 pm 16:55 Sunny 64 18 25 -4 22 22 VRB 7 11 30.41 1030 10 16 0.00 0.00
5:15 pm 17:15 Sunny 63 17 25 -4 24 24 VRB 5 7 30.42 1030 10 16 0.00 0.00
5:35 pm 17:35 Sunny 63 17 25 -4 24 24 SE 8 13 30.42 1030 10 16 0.00 0.00
5:55 pm 17:55 Sunny 61 16 25 -4 25 25 ESE 7 11 30.42 1030 10 16 0.00 0.00
6:15 pm 18:15 Sunny 59 15 25 -4 27 27 VRB 5 7 30.43 1030 10 16 0.00 0.00
6:35 pm 18:35 Clear 59 15 25 -4 27 27 VRB 5 7 30.43 1030 10 16 0.00 0.00
6:55 pm 18:55 Mostly Clear 57 14 25 -4 29 29 VRB 5 7 30.43 1030 10 16 0.00 0.00
7:15 pm 19:15 Mostly Cloudy 55 13 27 -3 33 33 E 5 7 30.43 1031 10 16 0.00 0.00
7:35 pm 19:35 Mostly Cloudy 55 13 27 -3 33 33 E 5 7 30.44 1031 10 16 0.00 0.00
7:55 pm 19:55 Mostly Cloudy 54 12 27 -3 35 35 E 6 9 30.44 1031 10 16 0.00 0.00
8:15 pm 20:15 Mostly Cloudy 52 11 28 -2 41 41 E 5 7 30.46 1031 10 16 0.00 0.00
8:35 pm 20:35 Mostly Cloudy 52 11 27 -3 38 38 E 5 7 30.46 1031 10 16 0.00 0.00
8:55 pm 20:55 Cloudy 52 11 27 -3 38 38 E 6 9 30.47 1032 10 16 0.00 0.00
9:15 pm 21:15 Cloudy 50 10 28 -2 43 43 E 5 7 30.47 1032 10 16 0.00 0.00
9:35 pm 21:35 Mostly Cloudy 52 11 27 -3 38 38 ESE 5 7 30.47 1032 10 16 0.00 0.00
9:55 pm 21:55 Mostly Cloudy 52 11 27 -3 38 38 E 6 9 30.47 1032 10 16 0.00 0.00
10:15 pm 22:15 Partly Cloudy 52 11 27 -3 38 38 ESE 6 9 30.47 1032 10 16 0.00 0.00
10:35 pm 22:35 Mostly Clear 52 11 27 -3 38 38 ESE 5 7 30.47 1032 10 16 0.00 0.00
10:55 pm 22:55 Clear 52 11 27 -3 38 38 E 5 7 30.48 1032 10 16 0.00 0.00
11:15 pm 23:15 Clear 50 10 27 -3 40 40 E 6 9 30.48 1032 10 16 0.00 0.00
11:35 pm 23:35 Clear 50 10 28 -2 43 43 ESE 6 9 30.48 1032 10 16 0.00 0.00
11:55 pm 23:55 Partly Cloudy 50 10 28 -2 43 43 ESE 5 7 30.48 1032 10 16 0.00 0.00

Powered by AerisWeather